STARLINK-35438

Last updated on Sun Dec 07 2025 00:02:05 GMT+0000 (Coordinated Universal Time)

1 66347U 25253AE 25340.58335648 -.01591332 00000+0 -29704-1 0 9997 2 66347 43.0001 20.6150 0000582 270.0329 266.8749 15.50988210 5947

Satellite not in orbit